This demonstration page uses our WeatherBlox Daily Observations layout. Learn more.

Left ArrowRight Arrow

53.62937, 11.41316

Hourly Observations for February 24, 2020

Temp ( °F °C ) Dew Point ( °F °C ) Humidity (%) Winds ( mph kmh ) Pressure ( in mb ) Visibility ( mi km ) Precip ( " mm )
6:50 am 06:50 Partly Cloudy 41 5 37 3 87 87 W 7 11 30.03 1017 30 48 N/A
7:20 am 07:20 Mostly Cloudy 41 5 37 3 87 87 W 5 7 30.03 1017 30 48 N/A
7:50 am 07:50 Partly Cloudy 41 5 37 3 87 87 W 5 7 30.03 1017 30 48 N/A
8:20 am 08:20 Mostly Cloudy 41 5 37 3 87 87 W 5 7 30.03 1017 30 48 N/A
8:50 am 08:50 Mostly Sunny 41 5 37 3 87 87 W 8 13 30.03 1017 30 48 N/A
9:20 am 09:20 Partly Cloudy 43 6 39 4 87 87 W 7 11 30.03 1017 30 48 N/A
9:50 am 09:50 Partly Cloudy 43 6 39 4 87 87 WSW 9 15 30.03 1017 30 48 N/A
10:20 am 10:20 Mostly Sunny 43 6 39 4 87 87 WSW 9 15 30.03 1017 30 48 N/A
10:50 am 10:50 Partly Cloudy 45 7 39 4 81 81 WSW 9 15 30.00 1016 30 48 N/A
11:20 am 11:20 Mostly Cloudy 45 7 39 4 81 81 WSW 10 17 30.00 1016 30 48 N/A
11:50 am 11:50 Partly Cloudy 45 7 39 4 81 81 SW 10 17 30.00 1016 30 48 N/A
12:20 pm 12:20 Partly Cloudy 46 8 39 4 76 76 SW 10 17 29.97 1015 30 48 N/A
12:50 pm 12:50 Partly Cloudy 45 7 37 3 76 76 SSW 9 15 29.95 1014 30 48 N/A
1:20 pm 13:20 Partly Cloudy 45 7 39 4 81 81 SSW 8 13 29.95 1014 30 48 N/A
1:50 pm 13:50 Partly Cloudy 45 7 37 3 76 76 S 7 11 29.92 1013 30 48 N/A
2:20 pm 14:20 Mostly Cloudy 45 7 37 3 76 76 SSW 8 13 29.89 1012 30 48 N/A
2:50 pm 14:50 Partly Cloudy 43 6 37 3 81 81 S 8 13 29.86 1011 30 48 N/A
3:20 pm 15:20 Mostly Cloudy with Drizzle 43 6 37 3 81 81 SSW 10 17 29.83 1010 30 48 N/A
3:50 pm 15:50 Mostly Cloudy with Drizzle 41 5 36 2 81 81 S 9 15 29.80 1009 30 48 N/A
4:20 pm 16:20 Mostly Cloudy with Light Rain 39 4 36 2 87 87 S 8 13 29.77 1008 30 48 N/A
4:50 pm 16:50 Mostly Cloudy with Light Rain 37 3 36 2 93 93 S 10 17 29.74 1007 4 7 N/A
5:20 pm 17:20 Mostly Cloudy with Light Rain 37 3 36 2 93 93 SSE 9 15 29.71 1006 4 6 N/A
5:50 pm 17:50 Mostly Cloudy with Light Rain 36 2 34 1 93 93 SE 9 15 29.68 1005 4 6 N/A
6:20 pm 18:20 Mostly Cloudy with Light Rain/Snow 34 1 34 1 100 100 ESE 9 15 29.65 1004 3 5 N/A
6:50 pm 18:50 Mostly Cloudy with Light Snow 34 1 32 0 93 93 ESE 9 15 29.59 1002 1 2 N/A
7:20 pm 19:20 Cloudy with Light Snow 34 1 32 0 93 93 ESE 10 17 29.56 1001 2 3 N/A
7:50 pm 19:50 Cloudy with Light Rain 34 1 34 1 100 100 SE 10 17 29.53 1000 2 3 N/A

Powered by AerisWeather